This demonstration page uses our WeatherBlox Daily Observations layout. Learn more.

Left ArrowRight Arrow

34.16533, -84.80231

Hourly Observations for May 3, 2017

Temp ( °F °C ) Dew Point ( °F °C ) Humidity (%) Winds ( mph kmh ) Pressure ( in mb ) Visibility ( mi km ) Precip ( " mm )
12:53 am 00:53 Clear 53 11.7 48 8.9 83 83 Calm 30.03 1017 10 16 0.00 0.00
1:53 am 01:53 Clear 50 10 48 8.9 93 93 Calm 30.03 1017 10 16 0.00 0.00
2:53 am 02:53 Clear 49 9.4 48 8.9 97 97 Calm 30.03 1017 10 16 0.00 0.00
3:53 am 03:53 Clear 48 8.9 48 8.9 100 100 Calm 30.03 1017 10 16 0.00 0.00
4:53 am 04:53 Clear 47 8.3 47 8.3 100 100 Calm 30.03 1017 10 16 0.00 0.00
5:53 am 05:53 Clear 47 8.3 47 8.3 100 100 Calm 30.04 1017 10 16 0.00 0.00
6:53 am 06:53 Sunny 46 7.8 46 7.8 100 100 Calm 30.04 1017 10 16 0.00 0.00
7:53 am 07:53 Sunny 50 10 49 9.4 96 96 Calm 30.06 1018 10 16 0.00 0.00
8:53 am 08:53 Sunny 59 15 53 11.7 81 81 Calm 30.07 1018 10 16 0.00 0.00
9:53 am 09:53 Sunny 65 18.3 52 11.1 63 63 Calm 30.08 1019 10 16 0.00 0.00
10:53 am 10:53 Sunny 71 21.7 53 11.7 53 53 Calm 30.07 1018 10 16 0.00 0.00
11:53 am 11:53 Sunny 76 24.4 52 11.1 43 43 NE 5 7 30.05 1018 10 16 0.00 0.00
12:53 pm 12:53 Sunny 78 25.6 50 10 37 37 N 3 6 30.02 1017 10 16 0.00 0.00
1:53 pm 13:53 Sunny 79 26.1 42 5.6 27 27 Calm 29.96 1015 10 16 0.00 0.00
2:53 pm 14:53 Sunny 81 27.2 50 10 34 34 VRB 7 11 29.97 1015 10 16 0.00 0.00
3:53 pm 15:53 Sunny 81 27.2 52 11.1 37 37 VRB 5 7 29.96 1015 10 16 0.00 0.00
4:53 pm 16:53 Sunny 80 26.7 51 10.6 37 37 VRB 7 11 29.93 1014 10 16 0.00 0.00
5:53 pm 17:53 Sunny 79 26.1 49 9.4 35 35 S 8 13 29.93 1014 10 16 0.00 0.00
6:53 pm 18:53 Sunny 74 23.3 63 17.2 69 69 Calm 29.94 1014 10 16 0.00 0.00
7:53 pm 19:53 Sunny 68 20 63 17.2 84 84 Calm 29.92 1013 10 16 0.00 0.00
8:53 pm 20:53 Clear 65 18.3 60 15.6 84 84 Calm 29.92 1013 10 16 0.00 0.00
9:53 pm 21:53 Clear 64 17.8 60 15.6 87 87 SE 3 6 29.92 1013 10 16 0.00 0.00
10:53 pm 22:53 Clear 70 21.1 54 12.2 57 57 SE 5 7 29.91 1013 10 16 0.00 0.00
11:53 pm 23:53 Clear 68 20 54 12.2 61 61 SE 5 7 29.90 1013 10 16 0.00 0.00

Powered by AerisWeather